Grand Rapids, MN

12:28 AM CDT on April 27, 2018 (GMT -0500)
Grand Rapids-Itasca County-Newstrom Field

Weather History for KGPZ - November, 2012

Change the Weather History Date:

Friday, November 30, 2012

  Actual Average Record
Temperature  
Mean Temperature 24 °F -  
Max Temperature 28 °F 29 °F 54 °F (1939)
Min Temperature 19 °F 11 °F -23 °F (1964)
Degree Days  
Heating Degree Days 42    
Moisture  
Dew Point 21 °F    
Average Humidity 85    
Maximum Humidity 93    
Minimum Humidity 74    
Precipitation  
Precipitation 0.00 in - - ()
Sea Level Pressure  
Sea Level Pressure 30.12 in    
Wind  
Wind Speed 6 mph (SE)    
Max Wind Speed 13 mph    
Max Gust Speed 18 mph    
Visibility 10 miles    
Events      
Averages and records for this station are not official NWS values.
T = Trace of Precipitation, MM = Missing Value Source: NWS Daily Summary

Daily Weather History Graph

Daily Weather History Graph

Search for Another Location

Airport or City:

Astronomy

Nov. 30, 2012 Rise Set
Actual Time 7:39 AM CST 4:26 PM CST
Civil Twilight 7:04 AM CST 5:01 PM CST
Nautical Twilight 6:26 AM CST 5:39 PM CST
Astronomical Twilight 5:49 AM CST 6:16 PM CST
Moon 6:22 PM CST (11/30) 9:11 AM CST (11/30)
Length of Visible Light 9h 56m
Length of Day
8h 47m
Waning Gibbous, 96% of the Moon is Illuminated
Nov 30
Waning Gibbous
Dec 6
Last Quarter
Dec 13
New
Dec 19
First Quarter
Dec 28
Full

Hourly Weather History & Observations

Time (CST) Temp. Windchill Dew Point Humidity Pressure Visibility Wind Dir Wind Speed Gust Speed Precip Events Conditions
12:15 AM 19.4 °F 14.3 °F 15.8 °F 86% 30.20 in 10.0 mi ENE 3.5 mph - N/A   Overcast
12:35 AM 19.4 °F - 15.8 °F 86% 30.19 in 10.0 mi Calm Calm - N/A   Overcast
12:55 AM 19.4 °F 12.8 °F 15.8 °F 86% 30.19 in 10.0 mi ENE 4.6 mph - N/A   Overcast
1:15 AM 19.4 °F 11.5 °F 15.8 °F 86% 30.18 in 10.0 mi ENE 5.8 mph - N/A   Overcast
1:35 AM 19.4 °F 11.5 °F 15.8 °F 86% 30.18 in 10.0 mi ENE 5.8 mph - N/A   Overcast
1:55 AM 19.4 °F 14.3 °F 15.8 °F 86% 30.18 in 10.0 mi East 3.5 mph - N/A   Overcast
2:15 AM 19.4 °F 10.4 °F 17.6 °F 93% 30.19 in 10.0 mi East 6.9 mph - N/A   Overcast
2:35 AM 19.4 °F 12.8 °F 17.6 °F 93% 30.18 in 10.0 mi ESE 4.6 mph - N/A   Overcast
2:55 AM 19.4 °F 14.3 °F 17.6 °F 93% 30.19 in 10.0 mi East 3.5 mph - N/A   Overcast
3:15 AM 19.4 °F 12.8 °F 17.6 °F 93% 30.18 in 10.0 mi East 4.6 mph - N/A   Overcast
3:35 AM 21.2 °F 16.4 °F 17.6 °F 86% 30.18 in 10.0 mi East 3.5 mph - N/A   Overcast
3:55 AM 21.2 °F 14.9 °F 17.6 °F 86% 30.17 in 10.0 mi ESE 4.6 mph - N/A   Overcast
4:15 AM 21.2 °F 14.9 °F 17.6 °F 86% 30.15 in 10.0 mi SE 4.6 mph - N/A   Overcast
4:35 AM 21.2 °F - 17.6 °F 86% 30.16 in 10.0 mi Calm Calm - N/A   Overcast
4:55 AM 21.2 °F - 17.6 °F 86% 30.17 in 10.0 mi Calm Calm - N/A   Overcast
5:15 AM 21.2 °F - 17.6 °F 86% 30.17 in 10.0 mi Calm Calm - N/A   Overcast
5:35 AM 21.2 °F - 17.6 °F 86% 30.16 in 10.0 mi Calm Calm - N/A   Overcast
5:55 AM 21.2 °F - 19.4 °F 93% 30.17 in 10.0 mi Calm Calm - N/A   Overcast
6:15 AM 24.8 °F 15.3 °F 19.4 °F 80% 30.17 in 10.0 mi SE 9.2 mph - N/A   Overcast
6:35 AM 24.8 °F 17.9 °F 21.2 °F 86% 30.18 in 10.0 mi SE 5.8 mph - N/A   Overcast
6:55 AM 24.8 °F 16.1 °F 19.4 °F 80% 30.17 in 10.0 mi SE 8.1 mph - N/A   Overcast
7:15 AM 24.8 °F 15.3 °F 19.4 °F 80% 30.17 in 10.0 mi SE 9.2 mph - N/A   Overcast
7:35 AM 24.8 °F 15.3 °F 21.2 °F 86% 30.17 in 10.0 mi ESE 9.2 mph - N/A   Overcast
7:55 AM 24.8 °F 16.9 °F 21.2 °F 86% 30.17 in 10.0 mi ESE 6.9 mph - N/A   Overcast
8:15 AM 24.8 °F 15.3 °F 21.2 °F 86% 30.16 in 10.0 mi ESE 9.2 mph - N/A   Overcast
8:35 AM 26.6 °F 18.2 °F 21.2 °F 80% 30.17 in 10.0 mi SE 8.1 mph - N/A   Overcast
8:55 AM 26.6 °F 18.2 °F 21.2 °F 80% 30.18 in 10.0 mi SE 8.1 mph - N/A   Overcast
9:15 AM 26.6 °F 19.1 °F 21.2 °F 80% 30.18 in 10.0 mi SE 6.9 mph - N/A   Overcast
9:35 AM 26.6 °F 20.0 °F 21.2 °F 80% 30.18 in 10.0 mi SE 5.8 mph - N/A   Overcast
9:55 AM 26.6 °F 21.2 °F 21.2 °F 80% 30.17 in 10.0 mi SE 4.6 mph 16.1 mph N/A   Overcast
10:15 AM 26.6 °F 16.8 °F 23.0 °F 86% 30.17 in 10.0 mi SE 10.4 mph - N/A   Overcast
10:35 AM 26.6 °F 16.8 °F 24.8 °F 93% 30.17 in 10.0 mi SE 10.4 mph - N/A   Overcast
10:55 AM 26.6 °F 16.8 °F 23.0 °F 86% 30.17 in 10.0 mi SE 10.4 mph 16.1 mph N/A   Overcast
11:15 AM 26.6 °F 17.5 °F 23.0 °F 86% 30.18 in 10.0 mi SSE 9.2 mph - N/A   Overcast
11:35 AM 26.6 °F 17.5 °F 23.0 °F 86% 30.17 in 10.0 mi SE 9.2 mph - N/A   Overcast
11:55 AM 26.6 °F 19.1 °F 23.0 °F 86% 30.16 in 10.0 mi SSE 6.9 mph - N/A   Overcast
12:15 PM 26.6 °F 17.5 °F 23.0 °F 86% 30.16 in 10.0 mi SE 9.2 mph - N/A   Overcast
12:35 PM 26.6 °F 18.2 °F 21.2 °F 80% 30.15 in 10.0 mi SE 8.1 mph - N/A   Overcast
12:55 PM 28.4 °F 19.7 °F 23.0 °F 80% 30.12 in 10.0 mi SE 9.2 mph 16.1 mph N/A   Overcast
1:15 PM 28.4 °F 20.4 °F 23.0 °F 80% 30.13 in 10.0 mi SSE 8.1 mph - N/A   Overcast
1:35 PM 28.4 °F 19.1 °F 21.2 °F 74% 30.11 in 10.0 mi SSE 10.4 mph - N/A   Overcast
1:55 PM 28.4 °F 19.1 °F 21.2 °F 74% 30.12 in 10.0 mi SE 10.4 mph - N/A   Overcast
2:15 PM 28.4 °F 19.7 °F 21.2 °F 74% 30.12 in 10.0 mi SSE 9.2 mph - N/A   Overcast
2:35 PM 28.4 °F 19.1 °F 21.2 °F 74% 30.12 in 10.0 mi South 10.4 mph - N/A   Overcast
2:55 PM 28.4 °F 19.1 °F 21.2 °F 74% 30.12 in 10.0 mi SSE 10.4 mph - N/A   Overcast
3:15 PM 28.4 °F 21.2 °F 21.2 °F 74% 30.12 in 10.0 mi SE 6.9 mph - N/A   Overcast
3:35 PM 28.4 °F 20.4 °F 23.0 °F 80% 30.12 in 10.0 mi SSE 8.1 mph - N/A   Overcast
3:55 PM 28.4 °F 19.1 °F 23.0 °F 80% 30.12 in 10.0 mi SSE 10.4 mph - N/A   Overcast
4:15 PM 28.4 °F 21.2 °F 23.0 °F 80% 30.10 in 10.0 mi SE 6.9 mph - N/A   Overcast
4:35 PM 28.4 °F 19.7 °F 23.0 °F 80% 30.09 in 10.0 mi SE 9.2 mph - N/A   Overcast
4:55 PM 28.4 °F 18.5 °F 23.0 °F 80% 30.08 in 10.0 mi SSE 11.5 mph - N/A   Overcast
5:15 PM 26.6 °F 18.2 °F 21.2 °F 80% 30.08 in 10.0 mi SE 8.1 mph - N/A   Overcast
5:35 PM 26.6 °F 19.1 °F 21.2 °F 80% 30.08 in 10.0 mi SE 6.9 mph - N/A   Overcast
5:55 PM 26.6 °F 18.2 °F 23.0 °F 86% 30.08 in 10.0 mi SSE 8.1 mph - N/A   Overcast
6:15 PM 26.6 °F 17.5 °F 23.0 °F 86% 30.07 in 10.0 mi SSE 9.2 mph - N/A   Overcast
6:35 PM 26.6 °F 16.8 °F 23.0 °F 86% 30.06 in 10.0 mi SE 10.4 mph 16.1 mph N/A   Overcast
6:55 PM 26.6 °F 18.2 °F 23.0 °F 86% 30.06 in 10.0 mi SSE 8.1 mph - N/A   Overcast
7:15 PM 26.6 °F 18.2 °F 23.0 °F 86% 30.06 in 10.0 mi SE 8.1 mph - N/A   Overcast
7:35 PM 26.6 °F 16.8 °F 23.0 °F 86% 30.05 in 10.0 mi SSE 10.4 mph 16.1 mph N/A   Overcast
7:55 PM 26.6 °F 16.8 °F 23.0 °F 86% 30.06 in 10.0 mi SE 10.4 mph - N/A   Overcast
8:15 PM 26.6 °F 16.8 °F 23.0 °F 86% 30.04 in 9.0 mi SE 10.4 mph - N/A   Overcast
8:35 PM 26.6 °F 15.7 °F 23.0 °F 86% 30.03 in 8.0 mi SSE 12.7 mph 17.3 mph N/A   Overcast
8:55 PM 26.6 °F 17.5 °F 24.8 °F 93% 30.03 in 8.0 mi SSE 9.2 mph - N/A   Overcast
9:15 PM 26.6 °F 18.2 °F 24.8 °F 93% 30.04 in 7.0 mi SE 8.1 mph - N/A   Overcast
9:35 PM 26.6 °F 17.5 °F 24.8 °F 93% 30.03 in 7.0 mi SE 9.2 mph - N/A   Overcast
9:55 PM 26.6 °F 17.5 °F 24.8 °F 93% 30.02 in 7.0 mi SE 9.2 mph - N/A   Overcast
10:15 PM 26.6 °F 18.2 °F 24.8 °F 93% 30.00 in 7.0 mi SE 8.1 mph - N/A   Overcast
10:35 PM 26.6 °F 16.2 °F 24.8 °F 93% 30.00 in 7.0 mi SSE 11.5 mph 18.4 mph N/A   Overcast
10:55 PM 26.6 °F 17.5 °F 24.8 °F 93% 30.00 in 7.0 mi SE 9.2 mph - N/A   Overcast
11:15 PM 28.4 °F 19.7 °F 24.8 °F 86% 30.00 in 6.0 mi SSE 9.2 mph - N/A   Overcast
11:35 PM 28.4 °F 19.1 °F 24.8 °F 86% 30.00 in 5.0 mi SSE 10.4 mph - N/A   Overcast
11:55 PM 28.4 °F 18.5 °F 26.6 °F 93% 29.99 in 5.0 mi SSE 11.5 mph 16.1 mph N/A   Overcast